Weather History for Pasco, WA

Change the Weather History Date:

Thursday, September 6, 2012

  Actual Average Record
Temperature  
Mean Temperature 67 °F 67 °F  
Max Temperature 82 °F 84 °F 100 °F (1998)
Min Temperature 52 °F 50 °F 40 °F (2002)
Degree Days  
Heating Degree Days 0 1  
Month to date heating degree days 5 6  
Since 1 July heating degree days 10 18  
Cooling Degree Days 2 3  
Month to date cooling degree days 7 22  
Year to date cooling degree days 760 679  
Growing Degree Days 18 (Base 50)    
Moisture  
Dew Point 49 °F    
Average Humidity 58    
Maximum Humidity 83    
Minimum Humidity 33    
Precipitation  
Precipitation 0.00 in 0.01 in 0.10 in (1971)
Month to date precipitation 0.00 0.06  
Year to date precipitation 6.41 5.54  
Snow  
Snow 0.00 in - - ()
Snow Depth 0.00 in    
Sea Level Pressure  
Sea Level Pressure 30.02 in    
Wind  
Wind Speed 8 mph (NNW)    
Max Wind Speed 16 mph    
Max Gust Speed 20 mph    
Visibility 10 miles    
Events      
T = Trace of Precipitation, MM = Missing Value Source: NWS Daily Summary

Daily Weather History Graph

Daily Weather History Graph

Search for Another Location

Airport:

Trip Planner

Search our weather history database for the weather conditions in past years. The results will help you decide how hot, cold, wet, or windy it might be!

Date:

Astronomy

Sep. 06, 2012 Rise Set
Actual Time 6:23 AM PDT 7:24 PM PDT
Civil Twilight 5:53 AM PDT 7:54 PM PDT
Nautical Twilight 5:16 AM PDT 8:31 PM PDT
Astronomical Twilight 4:37 AM PDT 9:10 PM PDT
Moon 10:14 PM PDT (9/6) 12:51 PM PDT (9/6)
Length of Visible Light 14h 01m
Length of Day
13h 00m
Waning Gibbous, 66% of the Moon is Illuminated
Sep 6
Waning Gibbous
Sep 8
Last Quarter
Sep 15
New
Sep 22
First Quarter
Sep 29
Full

Hourly Weather History & Observations

Time (PDT) Temp. Dew Point Humidity Pressure Visibility Wind Dir Wind Speed Gust Speed Precip Events Conditions
12:53 AM 64.0 °F 46.0 °F 52% 29.90 in 9.0 mi NNE 6.9 mph - N/A   Clear
1:53 AM 60.1 °F 48.9 °F 67% 29.93 in 10.0 mi NW 11.5 mph - N/A   Clear
2:53 AM 62.1 °F 50.0 °F 65% 29.95 in 10.0 mi NNW 13.8 mph - N/A   Clear
3:53 AM 57.9 °F 50.0 °F 75% 29.96 in 10.0 mi NNW 10.4 mph - N/A   Clear
4:53 AM 55.9 °F 48.9 °F 77% 29.99 in 10.0 mi NNW 6.9 mph - N/A   Clear
5:53 AM 55.9 °F 48.9 °F 77% 30.01 in 10.0 mi NNW 9.2 mph - N/A   Clear
6:53 AM 55.0 °F 48.0 °F 77% 30.04 in 10.0 mi NW 6.9 mph - N/A   Clear
7:53 AM 60.1 °F 50.0 °F 69% 30.06 in 10.0 mi NNW 4.6 mph - N/A   Clear
8:53 AM 64.9 °F 50.0 °F 58% 30.07 in 10.0 mi North 8.1 mph - N/A   Clear
9:53 AM 70.0 °F 48.0 °F 46% 30.08 in 10.0 mi NNE 9.2 mph - N/A   Clear
10:53 AM 72.0 °F 50.0 °F 46% 30.08 in 10.0 mi NNW 11.5 mph - N/A   Clear
11:53 AM 75.0 °F 48.0 °F 38% 30.06 in 10.0 mi NNW 10.4 mph - N/A   Clear
12:53 PM 77.0 °F 50.0 °F 39% 30.06 in 10.0 mi NNW 8.1 mph - N/A   Clear
1:53 PM 79.0 °F 48.9 °F 35% 30.05 in 10.0 mi NNW 10.4 mph - N/A   Clear
2:53 PM 80.1 °F 48.0 °F 32% 30.04 in 10.0 mi NW 10.4 mph - N/A   Clear
3:53 PM 81.0 °F 48.9 °F 33% 30.03 in 10.0 mi NNW 8.1 mph - N/A   Clear
4:53 PM 81.0 °F 48.0 °F 31% 30.01 in 10.0 mi NW 9.2 mph - N/A   Clear
5:53 PM 79.0 °F 48.9 °F 35% 30.01 in 10.0 mi NW 9.2 mph - N/A   Clear
6:53 PM 73.9 °F 50.0 °F 43% 30.00 in 10.0 mi NW 6.9 mph - N/A   Clear
7:53 PM 66.9 °F 52.0 °F 59% 30.01 in 10.0 mi North 3.5 mph - N/A   Clear
8:53 PM 59.0 °F 52.0 °F 78% 30.03 in 10.0 mi NNW 5.8 mph - N/A   Clear
9:53 PM 61.0 °F 51.1 °F 70% 30.04 in 10.0 mi Calm Calm - N/A   Clear
10:53 PM 57.9 °F 50.0 °F 75% 30.06 in 10.0 mi Calm Calm - N/A   Clear
11:53 PM 55.9 °F 50.0 °F 80% 30.07 in 10.0 mi Calm Calm - N/A   Clear